Location: Burland Observatory
(39.4088°N, 105.4217°W)
Time: 20:27:17
(UTC-07:00)

SR - Pass Details

Date: 12 December 2019
Orbit: 574 x 882 km, 66.7° (Epoch: 27 January)

Event Time Altitude Azimuth Distance (km) Brightness Sun altitude
Rises 18:19:25 0° 327° (NNW) 3,468 ? -18.9°
Reaches altitude 10° 18:22:00 10° 324° (NW) 2,507 ? -19.3°
Maximum altitude 18:27:42 59° 246° (WSW) 955 ? -20.4°
Drops below altitude 10° 18:33:02 10° 168° (SSE) 2,339 ? -21.4°
Sets 18:35:22 0° 165° (SSE) 3,217 ? -21.8°
